Regional Weather Roundup
Issued by NWS

Home | Current Version | Previous Version | Graphics & Text | Print | Product List | Glossary On
Versions: 1 2 3 4 5 6 7 8 9 10 11 12 13 14 15 16 17 18 19 20 21 22 23 24 25 26 27 28 29 30 31 32 33 34 35 36 37 38 39 40 41 42 43 44 45 46 47 48 49 50
000
ASUS43 KFSD 312110
RWRSD

WEATHER ROUNDUP FOR SOUTH DAKOTA
NATIONAL WEATHER SERVICE SIOUX FALLS SD
400 PM CDT WED AUG 31 2016

NOTE: "FAIR" INDICATES FEW OR NO CLOUDS BELOW 12,000 FEET WITH NO
SIGNIFICANT WEATHER AND/OR OBSTRUCTIONS TO VISIBILITY.


SDZ001>005-009-010-012>017-312200-
NORTHWEST AND NORTH CENTRAL SOUTH DAKOTA

CITY           SKY/WX    TMP DP  RH WIND       PRES   REMARKS
BUFFALO          N/A     89  49  25 SE30G39   30.04F
FAITH            N/A     86  56  35 S20G31    30.15F
MOBRIDGE       SUNNY     89  55  31 SE14      30.13F
$$

SDZ012>016-024>037-041>051-057-063-072>074-312200-
SOUTHWEST AND SOUTH CENTRAL SOUTH DAKOTA

CITY           SKY/WX    TMP DP  RH WIND       PRES   REMARKS
RAPID CTY ARPT SUNNY     82  57  42 S17G26    30.17F
PIERRE         SUNNY     86  60  41 S7        30.14F
CUSTER         MOSUNNY   71  50  47 SE10G22   30.31F
PHILIP         SUNNY     86  57  37 S15G23    30.15F
PINE RIDGE     MOSUNNY   81  57  43 SE17G23   30.20F
WINNER         FAIR      86  64  47 SE9       30.19S
$$

SDZ004>011-016>023-039-040-312200-
NORTHEAST SOUTH DAKOTA

CITY           SKY/WX    TMP DP  RH WIND       PRES   REMARKS
ABERDEEN       CLOUDY    80  61  52 SE7       30.18F
WATERTOWN      CLOUDY    81  52  36 SW7       30.21F
BROOKINGS      SUNNY     80  55  42 N7        30.20F
SISSETON         N/A     81  56  42 E5        30.18F
$$

SDZ017-020-022-023-036>040-048>070-312200-
SOUTHEAST SOUTH DAKOTA

CITY           SKY/WX    TMP DP  RH WIND       PRES   REMARKS
SIOUX FALLS    MOSUNNY   83  58  42 E8        30.19F
HURON          PTSUNNY   81  61  50 SW3       30.17F
CHAMBERLAIN    MOSUNNY   86  65  50 SE5       30.18F
MITCHELL       SUNNY     84  57  39 SE9       30.18F
YANKTON        SUNNY     81  57  44 E8        30.17S
$$

ABBREVIATIONS USED IN REMARKS
   TC - TEMPERATURE IN CELSIUS
  WCI - WIND CHILL INDEX
   HX - HEAT INDEX
  VSB - VISIBILITY





USA.gov is the U.S. government's official web portal to all federal, state and local government web resources and services.